{"data":{"norad_id":55359,"epoch":"2026-05-24T14:33:41.855616Z","epoch_age_seconds":108891,"freshness":"FRESH","line1":"1 55359U 23013AE  26144.60673444 -.00000233  00000+0  10698-5 0  9994","line2":"2 55359  43.0024 238.1008 0001416 268.1515  91.9175 15.27575803183247","mean_motion":15.27575803,"eccentricity":0.0001416,"inclination_deg":43.0024,"raan_deg":238.1008,"arg_perigee_deg":268.1515,"mean_anomaly_deg":91.9175,"bstar":1.0698e-6,"rev_number":18324,"period_min":94.267007710648,"perigee_km":482.09011766555,"apogee_km":484.03320912703,"semimajor_km":6861.1986633963,"source":"CELESTRAK","updated_at":"2026-05-25T13:38:17.765451Z"}}